Location: Azul
(36.7830°S, 59.8500°W)
Time: 01:42:48
(UTC-03:00)

ISS - Pass Details

Date: 29 November 2020
Orbit: 418 x 420 km, 51.6° (Epoch: 04 December)

Event Time Altitude Azimuth Distance (km) Brightness Sun altitude
Exits shadow 04:49:23 - 266° (W) 1,827 -1.0 -8.5°
Reaches altitude 10° 04:50:20 10° 256° (WSW) 1,523 -1.3 -8.3°
Maximum altitude 04:52:54 19° 208° (SSW) 1,079 -1.6 -7.9°
Drops below altitude 10° 04:55:29 10° 159° (SSE) 1,533 0.0 -7.5°
Sets 04:58:01 0° 141° (SE) 2,404 1.8 -7.1°
